[[{"header":{"parameterUnit":"m.s-1","parameterCategory":1,"la1":30.2991,"la2":30.254,"lo1":-89.0895,"lo2":-89.0444,"dy":0.0017,"dx":0.0017,"nx":28,"ny":28,"refTime":"2025-12-17T03:00:00:Z","depth":0,"parameterNumber":2,"parameterNumberName":"U-component_of_WINDS"},"data":[0,0,0,0,0,0,0,0,0,0,0,0,0,0,0,0,0,0,0,0,0,0,0,0,0,0,0,0,0,0,0,0,0,0,0,0,0,0,0,0,0,0,0,0,0,0,0,0,0,0,0,0,0,0,0,0,0,0,-4.6123,-4.6125,0,-4.6323,-4.6325,-4.6328,-4.6338,-4.6336,-4.6333,-4.6331,-4.6537,-4.6545,-4.6552,0,0,0,0,0,0,0,0,0,0,0,0,0,-4.5756,-4.5763,-4.6123,-4.6126,-4.6128,-4.6323,-4.6325,-4.6328,-4.6339,-4.6336,-4.6333,-4.633,-4.6535,-4.6544,-4.6553,0,0,0,0,0,0,0,0,0,0,0,0,0,-4.5932,-4.5765,-4.6123,-4.6157,-4.6162,-4.6322,-4.6326,-4.6329,-4.6339,-4.6336,-4.6332,-4.6329,-4.6532,-4.6543,-4.6554,-4.6695,0,0,-4.6589,-4.6594,0,0,0,0,0,0,0,0,-4.5922,-4.5945,-4.6149,-4.6155,-4.6161,-4.6302,-4.6272,-4.6452,-4.634,-4.6272,-4.6331,-4.6327,-4.6462,-4.6479,-4.6524,-4.6704,-4.6713,-4.659,-4.6597,-4.6602,-4.6605,0,0,0,0,0,0,0,-4.5909,-4.5937,-4.6202,-4.6152,-4.6159,-4.6164,-4.6185,-4.6306,-4.6384,-4.6277,-4.6279,-4.6302,-4.6464,-4.6513,-4.6529,-4.6716,-4.659,-4.66,-4.6607,-4.6612,-4.7027,-4.7031,0,0,0,0,0,0,-4.589,-4.5926,-4.6196,-4.6208,-4.603,-4.6173,-4.6197,-4.626,-4.6383,-4.6398,-4.6305,-4.6302,-4.6495,-4.6516,-4.6536,-4.6711,-4.6602,-4.6613,-4.6619,-4.7023,-4.7028,-4.7033,0,0,0,0,0,0,-4.5882,-4.5914,-4.6188,-4.6068,-4.6103,-4.6183,-4.6254,-4.6266,-4.6314,-4.6403,-4.6418,-4.634,-4.6493,-4.652,-4.6656,-4.6718,-4.6618,-4.6628,-4.7018,-4.7025,-4.7031,-4.706,0,0,0,0,0,0,-4.5872,-4.5911,-4.5963,-4.6069,-4.6109,-4.6302,-4.6258,-4.6272,-4.6334,-4.6332,-4.644,-4.6454,-4.6493,-4.6639,-4.6668,-4.6732,-4.6637,-4.7013,-4.7021,-4.7029,-4.7053,-4.7066,-4.7077,0,0,0,0,0,-4.5858,-4.5963,-4.5966,-4.5998,-4.6176,-4.6306,-4.6329,-4.637,-4.6339,-4.6393,-4.6452,-4.6451,-4.6708,-4.6653,-4.6685,-4.6754,-4.7009,-4.7019,-4.7028,-4.7048,-4.7064,-4.7077,0,0,0,0,0,0,-4.5861,-4.5977,-4.5981,-4.6123,-4.6205,-4.6307,-4.6376,-4.6385,-4.6477,-4.6471,-4.652,-4.6544,-4.6679,-4.6731,-4.6668,-4.6899,-4.6855,-4.6871,-4.686,-4.6875,-4.6887,-4.687,-4.6647,0,0,0,0,0,-4.5878,-4.5973,-4.607,-4.6185,-4.6226,-4.6295,-4.6353,-4.6378,-4.6465,-4.6499,-4.6567,-4.6652,-4.6753,-4.6817,-4.6914,-4.7063,-4.7088,-4.7127,-4.7138,-4.7148,-4.716,-4.7247,-4.7265,-4.7064,-4.7064,-4.7063,0,0,-4.5914,-4.5989,-4.6045,-4.6188,-4.6254,-4.6353,-4.6323,-4.6428,-4.6502,-4.6515,-4.6648,-4.6702,-4.6801,-4.6944,-4.7011,-4.6991,-4.7223,-4.716,-4.7166,-4.7174,-4.7258,-4.7277,-4.7294,-4.707,-4.7069,-4.7068,0,0,-4.6029,-4.6095,-4.62,-4.6268,-4.637,-4.6416,-4.6442,-4.6545,-4.6582,-4.6716,-4.6729,-4.682,-4.6991,-4.7062,-4.712,-4.7271,-4.7275,-4.7302,-4.7361,-4.7445,-4.7461,-4.7475,-4.753,-4.7549,-4.7315,-4.7315,-4.7315,0,-4.606,-4.6208,-4.6252,-4.6359,-4.6422,-4.6441,-4.6549,-4.6614,-4.6742,-4.6787,-4.6764,-4.6982,-4.7049,-4.7212,-4.7249,-4.7296,-4.7328,-4.7287,-4.7455,-4.747,-4.7484,-4.7537,-4.7557,-4.7317,-4.7317,-4.7317,-4.7317,0,-4.6242,-4.6345,-4.6418,-4.6543,-4.6616,-4.6722,-4.6785,-4.6854,-4.6876,-4.6925,-4.7065,-4.7148,-4.7264,-4.7305,-4.7326,-4.7473,-4.7458,-4.7445,-4.7401,-4.7505,-4.7555,-4.7576,-4.7321,-4.732,-4.7319,-4.7319,0,0,-4.6357,-4.6511,-4.6536,-4.6595,-4.6713,-4.6794,-4.6905,-4.7019,-4.7077,-4.7168,-4.7262,-4.741,-4.74,-4.7467,-4.7498,-4.7571,-4.7688,-4.755,-4.7553,-4.7572,-4.7857,-4.7865,-4.7887,-4.7693,-4.7697,-4.7701,-4.7849,0,-4.6485,-4.6679,-4.6726,-4.6893,-4.6991,-4.7015,-4.7111,-4.7195,-4.7247,-4.7339,-4.7397,-4.7501,-4.7479,-4.752,-4.7595,-4.7658,-4.7746,-4.7648,-4.7783,-4.7787,-4.7754,-4.7913,-4.7921,-4.8056,-4.7869,-4.7872,-4.7875,0,-4.6657,-4.6753,-4.693,-4.7039,-4.7082,-4.7167,-4.7279,-4.7367,-4.7465,-4.7498,-4.7576,-4.76,-4.7719,-4.7673,-4.7839,-4.7772,-4.7831,-4.7872,-4.7878,-4.789,-4.7834,-4.7929,-4.81,-4.812,-4.7906,-4.7904,-4.7901,0,-4.6723,-4.6897,-4.7026,-4.7076,-4.7207,-4.7267,-4.7325,-4.742,-4.7487,-4.7586,-4.7631,-4.7742,-4.7803,-4.789,-4.7946,-4.7907,-4.8109,-4.8066,-4.814,-4.8139,-4.8178,-4.8174,-4.836,-4.8219,-4.8219,-4.8219,-4.8218,0,-4.6859,-4.6966,-4.7058,-4.7137,-4.726,-4.7317,-4.7437,-4.7496,-4.7581,-4.7674,-4.7704,-4.779,-4.786,-4.7958,-4.8003,-4.8135,-4.8163,-4.8194,-4.8204,-4.819,-4.8186,-4.8227,-4.8218,-4.8224,-4.8223,-4.8222,-4.8221,0,-4.6951,-4.7017,-4.7159,-4.7274,-4.7306,-4.7391,-4.749,-4.757,-4.7626,-4.7743,-4.7775,-4.7861,-4.7979,-4.8045,-4.8192,-4.8223,-4.837,-4.8376,-4.8336,-4.834,-4.8411,-4.8403,-4.8627,-4.866,-4.8499,-4.8501,-4.8502,0,-4.7031,-4.7115,-4.724,-4.7305,-4.7364,-4.7467,-4.7538,-4.7599,-4.7671,-4.7794,-4.7859,-4.7979,-4.8077,-4.8265,-4.8342,-4.8456,-4.8465,-4.8536,-4.8482,-4.8466,-4.8466,-4.8459,-4.8469,-4.8544,-4.8545,-4.8547,-4.8548,0,-4.7167,-4.7198,-4.7297,-4.7411,-4.7494,-4.7586,-4.7677,-4.773,-4.7807,-4.7888,-4.8009,-4.8085,-4.8238,-4.8357,-4.848,-4.8542,-4.8559,-4.8565,-4.8588,-4.8573,-4.8546,-4.8562,-4.836,-4.8558,-4.8557,-4.8557,-4.8556,-4.8555,-4.7255,-4.7332,-4.7434,-4.7545,-4.7622,-4.7708,-4.779,-4.7858,-4.7959,-4.8088,-4.812,-4.8248,-4.8351,-4.8516,-4.8583,-4.8686,-4.8672,-4.8706,-4.8714,-4.8721,-4.8723,-4.8533,-4.8708,-4.8708,-4.8708,-4.8708,-4.8708,0,-4.7392,-4.746,-4.7563,-4.7692,-4.7781,-4.7792,-4.7896,-4.797,-4.8082,-4.8177,-4.8275,-4.8417,-4.8534,-4.8624,-4.8745,-4.8811,-4.8822,-4.8841,-4.8835,-4.885,-4.8728,-4.8695,-4.883,-4.883,-4.883,-4.883,-4.883,-4.883,-4.7473,-4.7605,-4.7649,-4.7821,-4.7889,-4.8014,-4.8073,-4.8155,-4.8231,-4.8388,-4.8486,-4.8545,-4.8639,-4.8769,-4.8879,-4.8903,-4.8946,-4.8963,-4.8988,-4.8871,-4.8858,-4.8845,-4.8815,-4.8972,-4.8972,-4.9101,-4.9102,-4.9103]},{"header":{"parameterUnit":"m.s-1","parameterCategory":1,"la1":30.2991,"la2":30.254,"lo1":-89.0895,"lo2":-89.0444,"dy":0.0017,"dx":0.0017,"nx":28,"ny":28,"refTime":"2025-12-17T03:00:00:Z","depth":0,"parameterNumber":3,"parameterNumberName":"V-component_of_WINDS"},"data":[0,0,0,0,0,0,0,0,0,0,0,0,0,0,0,0,0,0,0,0,0,0,0,0,0,0,0,0,0,0,0,0,0,0,0,0,0,0,0,0,0,0,0,0,0,0,0,0,0,0,0,0,0,0,0,0,0,0,1.3847,1.3846,0,1.3764,1.3763,1.3763,1.3755,1.3756,1.3757,1.3758,1.3663,1.366,1.3656,0,0,0,0,0,0,0,0,0,0,0,0,0,1.3991,1.3988,1.3847,1.3846,1.3845,1.3765,1.3763,1.3762,1.3755,1.3756,1.3758,1.3759,1.3664,1.366,1.3656,0,0,0,0,0,0,0,0,0,0,0,0,0,1.392,1.3987,1.3847,1.3832,1.383,1.3765,1.3763,1.3762,1.3755,1.3756,1.3758,1.3759,1.3666,1.3661,1.3656,1.3597,0,0,1.364,1.3638,0,0,0,0,0,0,0,0,1.3924,1.3915,1.3835,1.3833,1.3831,1.3772,1.3779,1.3706,1.3755,1.3783,1.3758,1.376,1.3697,1.369,1.3671,1.3592,1.3588,1.364,1.3637,1.3634,1.3633,0,0,0,0,0,0,0,1.3929,1.3918,1.3814,1.3834,1.3831,1.3827,1.3818,1.3765,1.3733,1.3781,1.378,1.3771,1.3696,1.3676,1.3669,1.3587,1.364,1.3635,1.3632,1.363,1.3456,1.3454,0,0,0,0,0,0,1.3938,1.3922,1.3817,1.3812,1.3882,1.3823,1.3814,1.3789,1.3734,1.3727,1.377,1.3771,1.3684,1.3675,1.3665,1.3593,1.3634,1.363,1.3627,1.3457,1.3455,1.3454,0,0,0,0,0,0,1.3941,1.3929,1.382,1.3867,1.3853,1.3819,1.3792,1.3787,1.3767,1.3726,1.3719,1.3756,1.3685,1.3672,1.3615,1.3589,1.3627,1.3623,1.3459,1.3457,1.3454,1.3447,0,0,0,0,0,0,1.3945,1.393,1.3909,1.3867,1.385,1.3773,1.379,1.3784,1.3759,1.376,1.3711,1.3704,1.3685,1.3622,1.361,1.3583,1.3619,1.3461,1.3458,1.3455,1.3449,1.3445,1.3441,0,0,0,0,0,1.395,1.3908,1.3908,1.3895,1.3824,1.3772,1.3762,1.3744,1.3757,1.3734,1.3709,1.3705,1.3595,1.3616,1.3602,1.3574,1.3462,1.3459,1.3455,1.3451,1.3446,1.3441,0,0,0,0,0,0,1.3944,1.3902,1.3901,1.3845,1.3813,1.3771,1.3742,1.3739,1.37,1.3701,1.3678,1.3667,1.361,1.3586,1.3611,1.3514,1.353,1.3523,1.3531,1.3526,1.3522,1.3527,1.3615,0,0,0,0,0,1.3937,1.3901,1.3865,1.3818,1.3802,1.3775,1.3751,1.3741,1.3705,1.369,1.366,1.3623,1.358,1.3552,1.351,1.3447,1.3435,1.342,1.3416,1.3412,1.3406,1.3371,1.3363,1.3442,1.3442,1.3442,0,0,1.3919,1.3892,1.387,1.3816,1.379,1.3751,1.3763,1.3721,1.3691,1.3683,1.3627,1.3604,1.3561,1.35,1.3472,1.3478,1.3382,1.3408,1.3406,1.3401,1.3366,1.3359,1.3352,1.3439,1.344,1.344,0,0,1.3868,1.3845,1.3804,1.3778,1.374,1.3723,1.3713,1.3672,1.3658,1.3603,1.3596,1.3559,1.3485,1.3455,1.343,1.337,1.3365,1.3357,1.3333,1.3299,1.3293,1.3287,1.3265,1.3257,1.3351,1.3351,1.3351,0,1.385,1.3795,1.3782,1.3741,1.3716,1.3712,1.3669,1.3643,1.3592,1.3574,1.3583,1.3492,1.3462,1.3395,1.3381,1.3361,1.3347,1.3361,1.3296,1.329,1.3284,1.3262,1.3254,1.335,1.335,1.3351,1.3351,0,1.3775,1.3736,1.3707,1.3662,1.3634,1.3592,1.357,1.3543,1.3536,1.3517,1.346,1.3426,1.3377,1.336,1.3351,1.3291,1.3296,1.3301,1.3316,1.3276,1.3255,1.3247,1.3349,1.335,1.335,1.335,0,0,1.3714,1.3666,1.3655,1.3635,1.3593,1.3561,1.3519,1.3475,1.3452,1.3417,1.3379,1.3318,1.3323,1.3295,1.3282,1.3252,1.3206,1.326,1.3259,1.325,1.3137,1.3133,1.3124,1.3204,1.3202,1.3201,1.314,0,1.3658,1.3585,1.3573,1.3508,1.3472,1.3468,1.3431,1.34,1.3381,1.3345,1.3323,1.3281,1.3291,1.3274,1.3244,1.3218,1.3183,1.3223,1.3165,1.3163,1.3175,1.3113,1.3108,1.3053,1.3132,1.3131,1.313,0,1.3581,1.3549,1.3482,1.3447,1.3431,1.3398,1.3358,1.3324,1.3289,1.3277,1.3247,1.3239,1.3191,1.3211,1.3144,1.3172,1.3148,1.3131,1.3129,1.3121,1.3143,1.3102,1.3034,1.3026,1.3117,1.3118,1.3119,0,1.3543,1.3482,1.3435,1.3418,1.3376,1.3353,1.3334,1.33,1.3275,1.3238,1.3221,1.3179,1.3154,1.312,1.3099,1.3116,1.3034,1.3052,1.3021,1.3021,1.3002,1.3003,1.2928,1.2989,1.2989,1.299,1.299,0,1.348,1.3439,1.3417,1.3387,1.3341,1.3327,1.328,1.326,1.3231,1.3195,1.3189,1.3155,1.3131,1.3092,1.3075,1.3022,1.3012,1.2999,1.2995,1.2999,1.3,1.2981,1.2983,1.2987,1.2988,1.2988,1.2989,0,1.3429,1.3413,1.336,1.3327,1.3318,1.3284,1.3254,1.3224,1.3207,1.3162,1.315,1.3122,1.3077,1.3054,1.2996,1.2985,1.2925,1.2924,1.2938,1.2936,1.2906,1.2909,1.2814,1.2801,1.2873,1.2872,1.2872,0,1.3389,1.3358,1.3322,1.33,1.3282,1.3245,1.3221,1.3206,1.318,1.3139,1.3113,1.3069,1.3032,1.296,1.2932,1.2888,1.2884,1.2855,1.2877,1.2883,1.2882,1.2884,1.288,1.285,1.2849,1.2849,1.2848,0,1.332,1.3314,1.3281,1.3246,1.3218,1.3188,1.3158,1.3139,1.3119,1.309,1.3046,1.3019,1.2963,1.2918,1.2872,1.2849,1.2844,1.2842,1.2832,1.2835,1.2844,1.2838,1.2925,1.2843,1.2844,1.2844,1.2844,1.2845,1.3271,1.3244,1.3216,1.3179,1.3156,1.3129,1.31,1.3081,1.3045,1.3001,1.2994,1.2947,1.2912,1.2851,1.2827,1.2788,1.2794,1.278,1.2776,1.2772,1.277,1.2853,1.2779,1.2779,1.278,1.278,1.278,0,1.3201,1.3184,1.315,1.3112,1.3082,1.3086,1.3053,1.3028,1.2988,1.2958,1.2924,1.2873,1.283,1.28,1.2756,1.273,1.2727,1.2719,1.2719,1.2714,1.2768,1.2781,1.2723,1.2723,1.2723,1.2723,1.2723,1.2723,1.3161,1.3115,1.3106,1.3048,1.3029,1.2987,1.2968,1.2942,1.2918,1.2864,1.283,1.2812,1.2781,1.2735,1.2695,1.2687,1.267,1.2662,1.2654,1.2704,1.271,1.2716,1.2727,1.2659,1.2659,1.2603,1.2602,1.2602]}]]